User: anonymous   Login
Location: Space Photons Observatory
(33.2428°N, 111.5467°W)
Time: 16:39:19
(UTC-07:00)
Language:

RESURS DK-1 - Orbit

View from above orbital plane
View from above orbital plane
View from above satellite
View from above satellite

Ground track
Ground track

The orbit data is extracted from the following two-line orbital elements,

1 29228U 06021A   18056.86982489  .00000080  00000-0  13458-4 0  9999
2 29228  69.9360 172.5894 0007306 295.5168  64.5237 15.02287073646194
Epoch (UTC): 25 February 2018 20:52:32
Eccentricity: 0.0007306
inclination: 69.9360°
perigee height: 555 km
apogee height: 565 km
right ascension of ascending node: 172.5894°
argument of perigee: 295.5168°
revolutions per day: 15.02287073
mean anomaly at epoch: 64.5237°
orbit number at epoch: 64619

The dashed part of the orbit path shows where the satellite is in the earth's shadow,  

DLR